| time (UTC) | temp F | wind direction | speed MPH | gust MPH | rain 1hr in | rain 24hr in | rain mn in | humidity % | barometer mb |
| 20260510163635 | 89 | 51 | 2.0 | 7.0 | 0.00 | 0.00 | 0.00 | 60 | 1019.8 |
| 20260510163131 | 89 | 291 | 3.0 | 7.0 | 0.00 | 0.00 | 0.00 | 60 | 1019.7 |
| 20260510162625 | 89 | 212 | 4.0 | 10.0 | 0.00 | 0.00 | 0.00 | 61 | 1020.0 |
| 20260510162122 | 90 | 204 | 3.0 | 7.0 | 0.00 | 0.00 | 0.00 | 59 | 1020.0 |
| 20260510161618 | 90 | 244 | 3.0 | 4.0 | 0.00 | 0.00 | 0.00 | 59 | 1020.0 |
| 20260510161115 | 90 | 1 | 2.0 | 7.0 | 0.00 | 0.00 | 0.00 | 59 | 1019.8 |
| 20260510160612 | 90 | 317 | 3.0 | 7.0 | 0.00 | 0.00 | 0.00 | 59 | 1019.9 |
| 20260510160112 | 89 | 92 | 3.0 | 13.0 | 0.00 | 0.00 | 0.00 | 60 | 1019.9 |
| 20260510155609 | 89 | 328 | 3.0 | 8.0 | 0.00 | 0.00 | 0.00 | 59 | 1020.0 |
| 20260510155105 | 89 | 74 | 2.0 | 6.0 | 0.00 | 0.00 | 0.00 | 60 | 1020.0 |
| 20260510154600 | 89 | 126 | 4.0 | 10.0 | 0.00 | 0.00 | 0.00 | 59 | 1020.2 |
| 20260510154056 | 89 | 9 | 1.0 | 8.0 | 0.00 | 0.00 | 0.00 | 61 | 1020.2 |
| 20260510153551 | 89 | 178 | 5.0 | 10.0 | 0.00 | 0.00 | 0.00 | 60 | 1020.2 |
| 20260510153048 | 90 | 131 | 3.0 | 7.0 | 0.00 | 0.00 | 0.00 | 58 | 1020.5 |
| 20260510152545 | 90 | 350 | 2.0 | 11.0 | 0.00 | 0.00 | 0.00 | 58 | 1020.3 |
| 20260510152041 | 90 | 327 | 2.0 | 8.0 | 0.00 | 0.00 | 0.00 | 58 | 1020.3 |
| 20260510151538 | 89 | 0 | 2.0 | 7.0 | 0.00 | 0.00 | 0.00 | 58 | 1020.3 |
| 20260510151036 | 89 | 112 | 2.0 | 8.0 | 0.00 | 0.00 | 0.00 | 59 | 1020.5 |
| 20260510150530 | 89 | 346 | 2.0 | 4.0 | 0.00 | 0.00 | 0.00 | 59 | 1020.3 |
| 20260510150027 | 89 | 257 | 3.0 | 9.0 | 0.00 | 0.00 | 0.00 | 61 | 1020.3 |
| 20260510145524 | 89 | 319 | 2.0 | 7.0 | 0.00 | 0.00 | 0.00 | 59 | 1020.4 |
| 20260510145020 | 89 | 331 | 4.0 | 9.0 | 0.00 | 0.00 | 0.00 | 59 | 1020.4 |
| 20260510144517 | 89 | 288 | 5.0 | 9.0 | 0.00 | 0.00 | 0.00 | 60 | 1020.6 |
| 20260510144013 | 88 | 249 | 3.0 | 8.0 | 0.00 | 0.00 | 0.00 | 61 | 1020.5 |
| 20260510143508 | 88 | 136 | 4.0 | 10.0 | 0.00 | 0.00 | 0.00 | 60 | 1020.6 |
| 20260510143005 | 89 | 224 | 4.0 | 9.0 | 0.00 | 0.00 | 0.00 | 60 | 1020.7 |
| 20260510142502 | 88 | 350 | 3.0 | 8.0 | 0.00 | 0.00 | 0.00 | 60 | 1020.6 |
| 20260510141958 | 89 | 36 | 5.0 | 11.0 | 0.00 | 0.00 | 0.00 | 60 | 1020.6 |
| 20260510141455 | 88 | 350 | 0.0 | 7.0 | 0.00 | 0.00 | 0.00 | 63 | 1020.5 |
| 20260510140953 | 88 | 180 | 5.0 | 15.0 | 0.00 | 0.00 | 0.00 | 62 | 1020.7 |
| 20260510140448 | 87 | 65 | 2.0 | 9.0 | 0.00 | 0.00 | 0.00 | 64 | 1020.6 |
| 20260510135948 | 86 | 85 | 2.0 | 8.0 | 0.00 | 0.00 | 0.00 | 65 | 1020.5 |
| 20260510135443 | 87 | 17 | 5.0 | 7.0 | 0.00 | 0.00 | 0.00 | 64 | 1020.4 |
| 20260510134941 | 87 | 224 | 3.0 | 8.0 | 0.00 | 0.00 | 0.00 | 65 | 1020.5 |
| 20260510134437 | 87 | 340 | 7.0 | 11.0 | 0.00 | 0.00 | 0.00 | 64 | 1020.6 |
| 20260510133935 | 87 | 246 | 2.0 | 7.0 | 0.00 | 0.00 | 0.00 | 64 | 1020.5 |
| 20260510133430 | 87 | 7 | 3.0 | 9.0 | 0.00 | 0.00 | 0.00 | 65 | 1020.6 |
| 20260510132926 | 87 | 197 | 7.0 | 8.0 | 0.00 | 0.00 | 0.00 | 64 | 1020.4 |
| 20260510132424 | 87 | 165 | 2.0 | 6.0 | 0.00 | 0.00 | 0.00 | 66 | 1020.4 |
| 20260510131920 | 86 | 337 | 3.0 | 14.0 | 0.00 | 0.00 | 0.00 | 65 | 1020.4 |
| 20260510131418 | 86 | 318 | 3.0 | 11.0 | 0.00 | 0.00 | 0.00 | 66 | 1020.3 |
| 20260510130914 | 86 | 195 | 2.0 | 3.0 | 0.00 | 0.00 | 0.00 | 68 | 1020.2 |
| 20260510130412 | 85 | 39 | 2.0 | 4.0 | 0.00 | 0.00 | 0.00 | 67 | 1020.2 |
| 20260510125908 | 86 | 192 | 2.0 | 8.0 | 0.00 | 0.00 | 0.00 | 66 | 1020.2 |
| 20260510125404 | 86 | 50 | 3.0 | 8.0 | 0.00 | 0.00 | 0.00 | 66 | 1020.2 |
| 20260510124901 | 85 | 6 | 4.0 | 7.0 | 0.00 | 0.00 | 0.00 | 68 | 1020.0 |
| 20260510124358 | 85 | 98 | 2.0 | 3.0 | 0.00 | 0.00 | 0.00 | 69 | 1020.0 |
| 20260510123854 | 84 | 24 | 2.0 | 6.0 | 0.00 | 0.00 | 0.00 | 70 | 1019.9 |
| 20260510123349 | 85 | 173 | 5.0 | 9.0 | 0.00 | 0.00 | 0.00 | 69 | 1019.8 |
| 20260510122846 | 85 | 6 | 4.0 | 7.0 | 0.00 | 0.00 | 0.00 | 69 | 1019.9 |
| 20260510122341 | 85 | 20 | 1.0 | 10.0 | 0.00 | 0.00 | 0.00 | 69 | 1019.9 |
| 20260510121838 | 85 | 299 | 3.0 | 11.0 | 0.00 | 0.00 | 0.00 | 68 | 1019.8 |
| 20260510121336 | 85 | 43 | 1.0 | 3.0 | 0.00 | 0.00 | 0.00 | 70 | 1019.7 |
| 20260510120833 | 84 | 44 | 0.0 | 3.0 | 0.00 | 0.00 | 0.00 | 70 | 1019.6 |
| 20260510120330 | 84 | 264 | 6.0 | 9.0 | 0.00 | 0.00 | 0.00 | 70 | 1019.5 |
| 20260510115825 | 84 | 247 | 2.0 | 14.0 | 0.00 | 0.00 | 0.00 | 70 | 1019.6 |
| 20260510115323 | 84 | 77 | 6.0 | 9.0 | 0.00 | 0.00 | 0.00 | 70 | 1019.7 |
| 20260510114819 | 84 | 332 | 1.0 | 3.0 | 0.00 | 0.00 | 0.00 | 70 | 1019.5 |
| 20260510114316 | 83 | 293 | 3.0 | 7.0 | 0.00 | 0.00 | 0.00 | 71 | 1019.4 |
| 20260510113811 | 83 | 54 | 6.0 | 8.0 | 0.00 | 0.00 | 0.00 | 70 | 1019.5 |
| 20260510113308 | 83 | 11 | 5.0 | 13.0 | 0.00 | 0.00 | 0.00 | 71 | 1019.4 |
| 20260510112805 | 83 | 275 | 5.0 | 8.0 | 0.00 | 0.00 | 0.00 | 73 | 1019.3 |
| 20260510112305 | 82 | 86 | 2.0 | 8.0 | 0.00 | 0.00 | 0.00 | 73 | 1019.3 |
| 20260510111757 | 82 | 160 | 4.0 | 6.0 | 0.00 | 0.00 | 0.00 | 73 | 1019.2 |
| 20260510111254 | 82 | 89 | 2.0 | 8.0 | 0.00 | 0.00 | 0.00 | 73 | 1019.0 |
| 20260510110753 | 82 | 39 | 2.0 | 3.0 | 0.00 | 0.00 | 0.00 | 74 | 1019.0 |
| 20260510110252 | 82 | 343 | 1.0 | 4.0 | 0.00 | 0.00 | 0.00 | 75 | 1018.9 |
| 20260510105752 | 81 | 326 | 2.0 | 6.0 | 0.00 | 0.00 | 0.00 | 76 | 1019.0 |
| 20260510105246 | 81 | 308 | 2.0 | 4.0 | 0.00 | 0.00 | 0.00 | 76 | 1018.9 |
| 20260510104743 | 81 | 211 | 0.0 | 8.0 | 0.00 | 0.00 | 0.00 | 76 | 1018.9 |
| 20260510104241 | 81 | 26 | 2.0 | 7.0 | 0.00 | 0.00 | 0.00 | 76 | 1018.9 |
| 20260510103737 | 81 | 69 | 4.0 | 7.0 | 0.00 | 0.00 | 0.00 | 75 | 1018.8 |
| 20260510103234 | 81 | 8 | 1.0 | 7.0 | 0.00 | 0.00 | 0.00 | 76 | 1018.9 |
| 20260510102734 | 81 | 267 | 2.0 | 6.0 | 0.00 | 0.00 | 0.00 | 76 | 1018.6 |
| 20260510102230 | 81 | 331 | 2.0 | 3.0 | 0.00 | 0.00 | 0.00 | 77 | 1018.7 |
| 20260510101728 | 81 | 345 | 2.0 | 4.0 | 0.00 | 0.00 | 0.00 | 77 | 1018.7 |
| 20260510101226 | 81 | 352 | 2.0 | 7.0 | 0.00 | 0.00 | 0.00 | 76 | 1018.6 |
| 20260510100721 | 81 | 8 | 1.0 | 2.0 | 0.00 | 0.00 | 0.00 | 76 | 1018.5 |
| 20260510100220 | 81 | 5 | 2.0 | 3.0 | 0.00 | 0.00 | 0.00 | 77 | 1018.5 |
| 20260510095715 | 81 | 225 | 2.0 | 3.0 | 0.00 | 0.00 | 0.00 | 77 | 1018.6 |
| 20260510095210 | 81 | 52 | 2.0 | 2.0 | 0.00 | 0.00 | 0.00 | 77 | 1018.4 |
| 20260510094709 | 81 | 7 | 2.0 | 8.0 | 0.00 | 0.00 | 0.00 | 76 | 1018.5 |
| 20260510094205 | 81 | 295 | 1.0 | 3.0 | 0.00 | 0.00 | 0.00 | 77 | 1018.3 |
| 20260510093700 | 81 | 62 | 3.0 | 4.0 | 0.00 | 0.00 | 0.00 | 76 | 1018.4 |
| 20260510093158 | 81 | 27 | 1.0 | 4.0 | 0.00 | 0.00 | 0.00 | 76 | 1018.2 |
| 20260510092654 | 80 | 28 | 4.0 | 6.0 | 0.00 | 0.00 | 0.00 | 77 | 1017.9 |
| 20260510092150 | 80 | 354 | 6.0 | 8.0 | 0.00 | 0.00 | 0.00 | 78 | 1018.0 |
| 20260510091646 | 81 | 340 | 2.0 | 3.0 | 0.00 | 0.00 | 0.00 | 78 | 1018.1 |
| 20260510091142 | 81 | 37 | 1.0 | 6.0 | 0.00 | 0.00 | 0.00 | 78 | 1017.8 |
| 20260510090640 | 81 | 49 | 3.0 | 6.0 | 0.00 | 0.00 | 0.00 | 78 | 1017.9 |
| 20260510090136 | 81 | 350 | 2.0 | 3.0 | 0.00 | 0.00 | 0.00 | 77 | 1018.0 |
| 20260510085631 | 81 | 325 | 3.0 | 8.0 | 0.00 | 0.00 | 0.00 | 77 | 1017.8 |
| 20260510085126 | 81 | 25 | 1.0 | 4.0 | 0.00 | 0.00 | 0.00 | 77 | 1017.8 |
| 20260510084623 | 81 | 336 | 2.0 | 6.0 | 0.00 | 0.00 | 0.00 | 76 | 1017.7 |
| 20260510084120 | 81 | 325 | 1.0 | 4.0 | 0.00 | 0.00 | 0.00 | 76 | 1017.6 |
| 20260510083616 | 81 | 175 | 2.0 | 4.0 | 0.00 | 0.00 | 0.00 | 76 | 1017.6 |
| 20260510083113 | 81 | 127 | 2.0 | 7.0 | 0.00 | 0.00 | 0.00 | 77 | 1017.7 |
| 20260510082609 | 81 | 97 | 3.0 | 8.0 | 0.00 | 0.00 | 0.00 | 77 | 1017.5 |
| 20260510082105 | 81 | 334 | 1.0 | 2.0 | 0.00 | 0.00 | 0.00 | 77 | 1017.5 |
| 20260510081600 | 81 | 76 | 2.0 | 6.0 | 0.00 | 0.00 | 0.00 | 77 | 1017.5 |
| 20260510081056 | 80 | 16 | 3.0 | 7.0 | 0.00 | 0.00 | 0.00 | 77 | 1017.4 |
| 20260510080555 | 80 | 355 | 1.0 | 4.0 | 0.00 | 0.00 | 0.00 | 77 | 1017.4 |
| 20260510080052 | 81 | 77 | 1.0 | 4.0 | 0.00 | 0.00 | 0.00 | 78 | 1017.4 |
| 20260510075550 | 81 | 352 | 4.0 | 6.0 | 0.00 | 0.00 | 0.00 | 78 | 1017.4 |
| 20260510075046 | 81 | 348 | 1.0 | 3.0 | 0.00 | 0.00 | 0.00 | 78 | 1017.2 |
| 20260510074544 | 81 | 346 | 2.0 | 6.0 | 0.00 | 0.00 | 0.00 | 77 | 1017.3 |
| 20260510074039 | 81 | 26 | 4.0 | 7.0 | 0.00 | 0.00 | 0.00 | 77 | 1017.3 |
| 20260510073535 | 81 | 75 | 2.0 | 6.0 | 0.00 | 0.00 | 0.00 | 77 | 1017.2 |
| 20260510073033 | 81 | 95 | 3.0 | 6.0 | 0.00 | 0.00 | 0.00 | 77 | 1017.2 |
| 20260510072529 | 81 | 304 | 2.0 | 7.0 | 0.00 | 0.00 | 0.00 | 77 | 1017.3 |
| 20260510072025 | 81 | 106 | 2.0 | 6.0 | 0.00 | 0.00 | 0.00 | 77 | 1017.3 |
| 20260510071521 | 81 | 333 | 2.0 | 4.0 | 0.00 | 0.00 | 0.00 | 77 | 1017.4 |
| 20260510071020 | 81 | 335 | 1.0 | 11.0 | 0.00 | 0.00 | 0.00 | 77 | 1017.5 |
| 20260510070516 | 81 | 339 | 2.0 | 6.0 | 0.00 | 0.00 | 0.00 | 77 | 1017.4 |
| 20260510070013 | 81 | 338 | 2.0 | 3.0 | 0.00 | 0.00 | 0.00 | 77 | 1017.5 |
| 20260510065509 | 81 | 318 | 2.0 | 4.0 | 0.00 | 0.00 | 0.00 | 77 | 1017.5 |
| 20260510065005 | 81 | 71 | 1.0 | 2.0 | 0.00 | 0.00 | 0.00 | 78 | 1017.5 |
| 20260510064502 | 81 | 71 | 1.0 | 6.0 | 0.00 | 0.00 | 0.00 | 78 | 1017.7 |
| 20260510063959 | 81 | 340 | 2.0 | 3.0 | 0.00 | 0.00 | 0.00 | 78 | 1017.6 |
| 20260510063455 | 81 | 318 | 0.0 | 2.0 | 0.00 | 0.00 | 0.00 | 78 | 1017.9 |
| 20260510062953 | 81 | 11 | 0.0 | 1.0 | 0.00 | 0.00 | 0.00 | 78 | 1018.0 |
| 20260510062448 | 81 | 336 | 1.0 | 4.0 | 0.00 | 0.00 | 0.00 | 77 | 1017.7 |
| 20260510061943 | 81 | 351 | 1.0 | 6.0 | 0.00 | 0.00 | 0.00 | 77 | 1017.9 |
| 20260510061441 | 81 | 357 | 0.0 | 4.0 | 0.00 | 0.00 | 0.00 | 77 | 1017.7 |
| 20260510060937 | 81 | 280 | 2.0 | 6.0 | 0.00 | 0.00 | 0.00 | 77 | 1017.8 |
| 20260510060434 | 81 | 53 | 2.0 | 8.0 | 0.00 | 0.00 | 0.00 | 77 | 1017.9 |
| 20260510055930 | 81 | 19 | 1.0 | 4.0 | 0.00 | 0.00 | 0.00 | 77 | 1017.8 |
| 20260510055426 | 81 | 197 | 1.0 | 6.0 | 0.00 | 0.00 | 0.00 | 77 | 1017.8 |
| 20260510054924 | 81 | 245 | 1.0 | 2.0 | 0.00 | 0.00 | 0.00 | 77 | 1017.8 |
| 20260510054420 | 81 | 331 | 1.0 | 3.0 | 0.00 | 0.00 | 0.00 | 77 | 1017.9 |
| 20260510053914 | 81 | 345 | 1.0 | 7.0 | 0.00 | 0.00 | 0.00 | 78 | 1018.1 |
| 20260510053411 | 81 | 354 | 3.0 | 7.0 | 0.00 | 0.00 | 0.00 | 78 | 1017.9 |
| 20260510052907 | 81 | 91 | 1.0 | 6.0 | 0.00 | 0.00 | 0.00 | 78 | 1017.9 |
| 20260510052403 | 81 | 288 | 0.0 | 3.0 | 0.00 | 0.00 | 0.00 | 78 | 1018.1 |
| 20260510051859 | 81 | 70 | 2.0 | 6.0 | 0.00 | 0.00 | 0.00 | 78 | 1018.0 |
| 20260510051355 | 81 | 68 | 2.0 | 2.0 | 0.00 | 0.00 | 0.00 | 78 | 1018.0 |
| 20260510050852 | 81 | 22 | 2.0 | 7.0 | 0.00 | 0.00 | 0.00 | 78 | 1018.1 |
| 20260510050349 | 81 | 80 | 2.0 | 7.0 | 0.00 | 0.00 | 0.00 | 78 | 1018.0 |
| 20260510045846 | 81 | 331 | 1.0 | 3.0 | 0.00 | 0.00 | 0.00 | 78 | 1018.1 |
| 20260510045343 | 81 | 358 | 2.0 | 4.0 | 0.00 | 0.00 | 0.00 | 78 | 1018.1 |
| 20260510044840 | 81 | 81 | 4.0 | 6.0 | 0.00 | 0.00 | 0.00 | 78 | 1018.3 |
| 20260510044337 | 81 | 67 | 2.0 | 7.0 | 0.00 | 0.00 | 0.00 | 78 | 1018.3 |
| 20260510043833 | 81 | 20 | 2.0 | 6.0 | 0.00 | 0.00 | 0.00 | 77 | 1018.1 |
| 20260510043329 | 81 | 89 | 2.0 | 6.0 | 0.00 | 0.00 | 0.00 | 77 | 1018.2 |
| 20260510042827 | 81 | 340 | 1.0 | 3.0 | 0.00 | 0.00 | 0.00 | 78 | 1018.1 |
| 20260510042323 | 81 | 340 | 1.0 | 3.0 | 0.00 | 0.00 | 0.00 | 77 | 1018.3 |
| 20260510041819 | 81 | 35 | 2.0 | 8.0 | 0.00 | 0.00 | 0.00 | 77 | 1018.3 |
| 20260510041317 | 81 | 337 | 1.0 | 6.0 | 0.00 | 0.00 | 0.00 | 77 | 1018.3 |
| 20260510040814 | 81 | 88 | 4.0 | 8.0 | 0.00 | 0.00 | 0.00 | 77 | 1018.3 |
| 20260510040310 | 81 | 96 | 4.0 | 7.0 | 0.00 | 0.00 | 0.00 | 77 | 1018.3 |
| 20260510035806 | 81 | 38 | 5.0 | 7.0 | 0.00 | 0.00 | 0.00 | 77 | 1018.3 |
| 20260510035306 | 81 | 345 | 1.0 | 3.0 | 0.00 | 0.00 | 0.00 | 78 | 1018.3 |
| 20260510034758 | 81 | 132 | 2.0 | 4.0 | 0.00 | 0.00 | 0.00 | 78 | 1018.4 |
| 20260510034256 | 81 | 346 | 0.0 | 1.0 | 0.00 | 0.00 | 0.00 | 77 | 1018.4 |
| 20260510033752 | 81 | 41 | 0.0 | 1.0 | 0.00 | 0.00 | 0.00 | 77 | 1018.5 |
| 20260510033250 | 81 | 40 | 1.0 | 2.0 | 0.00 | 0.00 | 0.00 | 76 | 1018.3 |
| 20260510032746 | 81 | 0 | 3.0 | 4.0 | 0.00 | 0.00 | 0.00 | 76 | 1018.4 |
| 20260510032242 | 81 | 49 | 4.0 | 8.0 | 0.00 | 0.00 | 0.00 | 76 | 1018.3 |
| 20260510031737 | 81 | 44 | 3.0 | 6.0 | 0.00 | 0.00 | 0.00 | 76 | 1018.6 |
| 20260510031233 | 81 | 355 | 3.0 | 6.0 | 0.00 | 0.00 | 0.00 | 77 | 1018.5 |
| 20260510030733 | 81 | 349 | 1.0 | 3.0 | 0.00 | 0.00 | 0.00 | 77 | 1018.4 |
| 20260510030231 | 81 | 13 | 2.0 | 6.0 | 0.00 | 0.00 | 0.00 | 77 | 1018.4 |
| 20260510025728 | 81 | 317 | 0.0 | 3.0 | 0.00 | 0.00 | 0.00 | 76 | 1018.5 |
| 20260510025225 | 81 | 249 | 4.0 | 6.0 | 0.00 | 0.00 | 0.00 | 76 | 1018.3 |
| 20260510024722 | 81 | 260 | 2.0 | 8.0 | 0.00 | 0.00 | 0.00 | 76 | 1018.5 |
| 20260510024219 | 81 | 5 | 3.0 | 3.0 | 0.00 | 0.00 | 0.00 | 77 | 1018.4 |
| 20260510023714 | 81 | 19 | 0.0 | 3.0 | 0.00 | 0.00 | 0.00 | 77 | 1018.5 |
| 20260510023211 | 81 | 27 | 3.0 | 9.0 | 0.00 | 0.00 | 0.00 | 77 | 1018.4 |
| 20260510022707 | 81 | 341 | 2.0 | 4.0 | 0.00 | 0.00 | 0.00 | 77 | 1018.3 |
| 20260510022202 | 81 | 349 | 2.0 | 2.0 | 0.00 | 0.00 | 0.00 | 77 | 1018.2 |
| 20260510021657 | 81 | 280 | 1.0 | 3.0 | 0.00 | 0.00 | 0.00 | 77 | 1018.2 |
| 20260510021155 | 81 | 37 | 2.0 | 7.0 | 0.00 | 0.00 | 0.00 | 77 | 1018.2 |
| 20260510020649 | 81 | 69 | 4.0 | 7.0 | 0.00 | 0.00 | 0.00 | 77 | 1018.4 |
| 20260510020145 | 81 | 10 | 1.0 | 2.0 | 0.00 | 0.00 | 0.00 | 77 | 1018.2 |
| 20260510015636 | 81 | 53 | 4.0 | 7.0 | 0.00 | 0.00 | 0.00 | 77 | 1018.3 |
| 20260510015133 | 81 | 35 | 2.0 | 4.0 | 0.00 | 0.00 | 0.00 | 77 | 1018.2 |
| 20260510014633 | 82 | 8 | 1.0 | 4.0 | 0.00 | 0.00 | 0.00 | 76 | 1018.2 |
| 20260510014131 | 82 | 314 | 0.0 | 4.0 | 0.00 | 0.00 | 0.00 | 76 | 1018.1 |
| 20260510013630 | 81 | 21 | 3.0 | 8.0 | 0.00 | 0.00 | 0.00 | 75 | 1018.1 |
| 20260510013127 | 81 | 190 | 2.0 | 4.0 | 0.00 | 0.00 | 0.00 | 75 | 1017.9 |
| 20260510012626 | 81 | 292 | 4.0 | 9.0 | 0.00 | 0.00 | 0.00 | 76 | 1017.9 |
| 20260510012123 | 82 | 9 | 2.0 | 3.0 | 0.00 | 0.00 | 0.00 | 77 | 1017.8 |
| 20260510011622 | 82 | 148 | 3.0 | 6.0 | 0.00 | 0.00 | 0.00 | 76 | 1017.8 |
| 20260510011118 | 82 | 44 | 2.0 | 7.0 | 0.00 | 0.00 | 0.00 | 76 | 1017.7 |
| 20260510010615 | 82 | 339 | 1.0 | 6.0 | 0.00 | 0.00 | 0.00 | 75 | 1017.7 |
| 20260510010112 | 82 | 1 | 2.0 | 6.0 | 0.00 | 0.00 | 0.00 | 75 | 1017.6 |
| 20260510005607 | 81 | 19 | 1.0 | 4.0 | 0.00 | 0.00 | 0.00 | 75 | 1017.5 |
| 20260510005105 | 81 | 354 | 1.0 | 6.0 | 0.00 | 0.00 | 0.00 | 76 | 1017.6 |
| 20260510004603 | 82 | 13 | 2.0 | 3.0 | 0.00 | 0.00 | 0.00 | 77 | 1017.5 |
| 20260510004101 | 82 | 15 | 1.0 | 4.0 | 0.00 | 0.00 | 0.00 | 77 | 1017.5 |
| 20260510003557 | 82 | 194 | 2.0 | 10.0 | 0.00 | 0.00 | 0.00 | 77 | 1017.2 |
| 20260510003053 | 82 | 48 | 3.0 | 4.0 | 0.00 | 0.00 | 0.00 | 77 | 1017.0 |
| 20260510002548 | 82 | 352 | 1.0 | 4.0 | 0.00 | 0.00 | 0.00 | 76 | 1017.0 |
| 20260510002046 | 82 | 39 | 1.0 | 7.0 | 0.00 | 0.00 | 0.00 | 76 | 1017.2 |
| 20260510001542 | 82 | 18 | 1.0 | 6.0 | 0.00 | 0.00 | 0.00 | 76 | 1016.8 |
| 20260510001041 | 82 | 356 | 1.0 | 4.0 | 0.00 | 0.00 | 0.00 | 76 | 1016.9 |
| 20260510000536 | 82 | 33 | 0.0 | 6.0 | 0.00 | 0.00 | 0.00 | 76 | 1016.7 |
| 20260510000033 | 82 | 344 | 3.0 | 6.0 | 0.00 | 0.00 | 0.00 | 76 | 1016.6 |
| 20260509235530 | 82 | 41 | 2.0 | 7.0 | 0.00 | 0.00 | 0.00 | 75 | 1016.5 |
| 20260509235027 | 82 | 355 | 3.0 | 7.0 | 0.00 | 0.00 | 0.00 | 75 | 1016.5 |
| 20260509234523 | 82 | 357 | 2.0 | 4.0 | 0.00 | 0.00 | 0.00 | 75 | 1016.7 |
| 20260509234021 | 82 | 59 | 4.0 | 7.0 | 0.00 | 0.00 | 0.00 | 75 | 1016.4 |
| 20260509233518 | 82 | 325 | 2.0 | 6.0 | 0.00 | 0.00 | 0.00 | 74 | 1016.4 |
| 20260509233016 | 82 | 295 | 4.0 | 13.0 | 0.00 | 0.00 | 0.00 | 74 | 1016.5 |
| 20260509232512 | 82 | 354 | 0.0 | 6.0 | 0.00 | 0.00 | 0.00 | 73 | 1016.3 |
| 20260509232008 | 82 | 4 | 2.0 | 8.0 | 0.00 | 0.00 | 0.00 | 73 | 1016.2 |
| 20260509231505 | 82 | 10 | 0.0 | 3.0 | 0.00 | 0.00 | 0.00 | 74 | 1016.3 |
| 20260509231003 | 82 | 2 | 1.0 | 4.0 | 0.00 | 0.00 | 0.00 | 74 | 1016.3 |
| 20260509230500 | 82 | 14 | 1.0 | 6.0 | 0.00 | 0.00 | 0.00 | 74 | 1016.2 |
| 20260509225955 | 83 | 104 | 2.0 | 6.0 | 0.00 | 0.00 | 0.00 | 74 | 1016.3 |
| 20260509225452 | 83 | 343 | 1.0 | 7.0 | 0.00 | 0.00 | 0.00 | 75 | 1016.1 |
| 20260509224947 | 83 | 45 | 3.0 | 8.0 | 0.00 | 0.00 | 0.00 | 75 | 1016.1 |
| 20260509224443 | 83 | 338 | 2.0 | 6.0 | 0.00 | 0.00 | 0.00 | 75 | 1016.0 |
| 20260509223941 | 83 | 46 | 2.0 | 4.0 | 0.00 | 0.00 | 0.00 | 76 | 1016.1 |
| 20260509223437 | 83 | 341 | 1.0 | 7.0 | 0.00 | 0.00 | 0.00 | 75 | 1015.9 |
| 20260509222935 | 83 | 330 | 2.0 | 3.0 | 0.00 | 0.00 | 0.00 | 75 | 1016.0 |
| 20260509222429 | 83 | 353 | 2.0 | 4.0 | 0.00 | 0.00 | 0.00 | 75 | 1015.8 |
| 20260509221925 | 84 | 351 | 2.0 | 8.0 | 0.00 | 0.00 | 0.00 | 74 | 1015.7 |
| 20260509221422 | 84 | 6 | 3.0 | 3.0 | 0.00 | 0.00 | 0.00 | 73 | 1015.6 |
| 20260509220918 | 84 | 70 | 5.0 | 9.0 | 0.00 | 0.00 | 0.00 | 72 | 1015.6 |
| 20260509220414 | 84 | 245 | 1.0 | 8.0 | 0.00 | 0.00 | 0.00 | 72 | 1015.3 |
| 20260509215910 | 84 | 329 | 2.0 | 7.0 | 0.00 | 0.00 | 0.00 | 72 | 1015.4 |
| 20260509215401 | 84 | 98 | 4.0 | 8.0 | 0.00 | 0.00 | 0.00 | 70 | 1015.4 |
| 20260509214858 | 85 | 116 | 3.0 | 4.0 | 0.00 | 0.00 | 0.00 | 69 | 1015.3 |
| 20260509214355 | 85 | 358 | 1.0 | 4.0 | 0.00 | 0.00 | 0.00 | 67 | 1015.2 |
| 20260509213852 | 85 | 338 | 4.0 | 7.0 | 0.00 | 0.00 | 0.00 | 66 | 1015.4 |
| 20260509213347 | 86 | 86 | 2.0 | 7.0 | 0.00 | 0.00 | 0.00 | 66 | 1015.3 |
| 20260509212845 | 86 | 212 | 4.0 | 7.0 | 0.00 | 0.00 | 0.00 | 65 | 1015.6 |
| 20260509212342 | 86 | 344 | 3.0 | 8.0 | 0.00 | 0.00 | 0.00 | 65 | 1015.4 |
| 20260509211838 | 87 | 92 | 4.0 | 6.0 | 0.00 | 0.00 | 0.00 | 64 | 1015.4 |
| 20260509211334 | 87 | 346 | 2.0 | 4.0 | 0.00 | 0.00 | 0.00 | 63 | 1015.5 |
| 20260509210830 | 87 | 353 | 4.0 | 8.0 | 0.00 | 0.00 | 0.00 | 63 | 1015.7 |
| 20260509210328 | 87 | 57 | 4.0 | 10.0 | 0.00 | 0.00 | 0.00 | 63 | 1015.4 |
| 20260509205828 | 87 | 208 | 3.0 | 7.0 | 0.00 | 0.00 | 0.00 | 62 | 1015.5 |
| 20260509205323 | 87 | 20 | 4.0 | 8.0 | 0.00 | 0.00 | 0.00 | 62 | 1015.6 |
| 20260509204820 | 87 | 62 | 4.0 | 9.0 | 0.00 | 0.00 | 0.00 | 62 | 1015.6 |
| 20260509204316 | 87 | 58 | 3.0 | 10.0 | 0.00 | 0.00 | 0.00 | 62 | 1015.5 |
| 20260509203813 | 88 | 57 | 2.0 | 8.0 | 0.00 | 0.00 | 0.00 | 62 | 1015.6 |
| 20260509203310 | 88 | 150 | 3.0 | 7.0 | 0.00 | 0.00 | 0.00 | 60 | 1015.6 |
| 20260509202806 | 88 | 81 | 2.0 | 6.0 | 0.00 | 0.00 | 0.00 | 58 | 1015.7 |
| 20260509202306 | 89 | 193 | 3.0 | 8.0 | 0.00 | 0.00 | 0.00 | 57 | 1015.6 |
| 20260509201801 | 88 | 232 | 2.0 | 8.0 | 0.00 | 0.00 | 0.00 | 58 | 1015.7 |
| 20260509201258 | 89 | 229 | 4.0 | 7.0 | 0.00 | 0.00 | 0.00 | 57 | 1015.8 |
| 20260509200754 | 89 | 201 | 2.0 | 4.0 | 0.00 | 0.00 | 0.00 | 58 | 1015.8 |
| 20260509200249 | 89 | 79 | 3.0 | 7.0 | 0.00 | 0.00 | 0.00 | 57 | 1015.8 |
| 20260509195746 | 89 | 353 | 2.0 | 7.0 | 0.00 | 0.00 | 0.00 | 57 | 1016.0 |
| 20260509195241 | 89 | 209 | 4.0 | 6.0 | 0.00 | 0.00 | 0.00 | 55 | 1015.9 |
| 20260509194736 | 89 | 273 | 3.0 | 4.0 | 0.00 | 0.00 | 0.00 | 58 | 1016.0 |
| 20260509194232 | 89 | 356 | 2.0 | 8.0 | 0.00 | 0.00 | 0.00 | 58 | 1016.0 |
| 20260509193730 | 89 | 101 | 1.0 | 7.0 | 0.00 | 0.00 | 0.00 | 57 | 1016.2 |
| 20260509193229 | 89 | 25 | 3.0 | 8.0 | 0.00 | 0.00 | 0.00 | 58 | 1016.1 |
| 20260509192726 | 88 | 298 | 2.0 | 4.0 | 0.00 | 0.00 | 0.00 | 58 | 1016.1 |
| 20260509192221 | 87 | 293 | 2.0 | 4.0 | 0.00 | 0.00 | 0.00 | 65 | 1016.0 |
| 20260509191717 | 87 | 88 | 3.0 | 4.0 | 0.00 | 0.00 | 0.00 | 65 | 1016.2 |
| 20260509191214 | 86 | 7 | 2.0 | 6.0 | 0.00 | 0.00 | 0.00 | 66 | 1016.2 |
| 20260509190710 | 86 | 235 | 4.0 | 8.0 | 0.00 | 0.00 | 0.00 | 67 | 1016.4 |
| 20260509190207 | 87 | 113 | 3.0 | 8.0 | 0.00 | 0.00 | 0.00 | 66 | 1016.4 |
| 20260509185704 | 87 | 141 | 4.0 | 7.0 | 0.00 | 0.00 | 0.00 | 67 | 1016.3 |
| 20260509185200 | 86 | 309 | 6.0 | 9.0 | 0.00 | 0.00 | 0.00 | 67 | 1016.3 |
| 20260509184658 | 87 | 152 | 5.0 | 8.0 | 0.00 | 0.00 | 0.00 | 67 | 1016.6 |
| 20260509184155 | 87 | 114 | 3.0 | 9.0 | 0.00 | 0.00 | 0.00 | 67 | 1016.6 |
| 20260509183651 | 87 | 98 | 5.0 | 7.0 | 0.00 | 0.00 | 0.00 | 67 | 1016.8 |
| 20260509183146 | 87 | 337 | 4.0 | 11.0 | 0.00 | 0.00 | 0.00 | 66 | 1016.9 |
| 20260509182642 | 86 | 6 | 6.0 | 9.0 | 0.00 | 0.00 | 0.00 | 68 | 1017.1 |
| 20260509182140 | 87 | 21 | 6.0 | 9.0 | 0.00 | 0.00 | 0.00 | 67 | 1017.0 |
| 20260509181638 | 87 | 85 | 3.0 | 9.0 | 0.00 | 0.00 | 0.00 | 64 | 1017.3 |
| 20260509181135 | 88 | 123 | 4.0 | 6.0 | 0.00 | 0.00 | 0.00 | 63 | 1017.4 |
| 20260509180631 | 88 | 103 | 3.0 | 6.0 | 0.00 | 0.00 | 0.00 | 59 | 1017.3 |
| 20260509180128 | 89 | 120 | 4.0 | 7.0 | 0.00 | 0.00 | 0.00 | 59 | 1017.3 |
| 20260509175624 | 89 | 122 | 5.0 | 7.0 | 0.00 | 0.00 | 0.00 | 58 | 1017.6 |
| 20260509175121 | 90 | 172 | 3.0 | 9.0 | 0.00 | 0.00 | 0.00 | 58 | 1017.5 |
| 20260509174617 | 89 | 92 | 3.0 | 6.0 | 0.00 | 0.00 | 0.00 | 56 | 1017.5 |
| 20260509174112 | 89 | 117 | 4.0 | 8.0 | 0.00 | 0.00 | 0.00 | 58 | 1017.6 |
| 20260509173608 | 89 | 82 | 4.0 | 4.0 | 0.00 | 0.00 | 0.00 | 57 | 1017.5 |
| 20260509173103 | 89 | 338 | 4.0 | 9.0 | 0.00 | 0.00 | 0.00 | 59 | 1017.9 |
| 20260509172600 | 89 | 221 | 4.0 | 7.0 | 0.00 | 0.00 | 0.00 | 58 | 1017.7 |
| 20260509172056 | 88 | 103 | 3.0 | 6.0 | 0.00 | 0.00 | 0.00 | 58 | 1017.8 |
| 20260509171552 | 88 | 43 | 1.0 | 9.0 | 0.00 | 0.00 | 0.00 | 59 | 1018.1 |
| 20260509171048 | 87 | 17 | 4.0 | 10.0 | 0.00 | 0.00 | 0.00 | 61 | 1018.3 |
| 20260509170544 | 87 | 57 | 3.0 | 10.0 | 0.00 | 0.00 | 0.00 | 64 | 1018.3 |
| 20260509170041 | 86 | 181 | 5.0 | 7.0 | 0.00 | 0.00 | 0.00 | 64 | 1018.4 |
| 20260509165539 | 85 | 183 | 4.0 | 7.0 | 0.00 | 0.00 | 0.00 | 67 | 1018.2 |
| 20260509165035 | 86 | 322 | 2.0 | 7.0 | 0.00 | 0.00 | 0.00 | 67 | 1018.5 |
| 20260509164531 | 86 | 153 | 2.0 | 6.0 | 0.00 | 0.00 | 0.00 | 65 | 1018.5 |